Location: Newark
(48.9320°N, 2.2664°E)
Time: 12:40:00
(UTC+00:00)

Tiros 1 - Visible Passes

Search period start: 17 February 2020 00:00
Search period end: 27 February 2020 00:00
Orbit: 630 x 664 km, 48.4° (Epoch: 16 February)

Date Brightness Start Highest point End Pass type
(mag) Time Alt. Az. Time Alt. Az. Time Alt. Az.
17 Feb 8.7 04:00:47 29° SE 04:00:47 29° SE 04:04:04 10° E visible
17 Feb 7.2 05:38:27 18° WSW 05:41:48 74° SSE 05:46:26 10° E visible
18 Feb 7.6 04:25:45 51° SSE 04:25:48 51° SSE 04:30:18 10° E visible
18 Feb 7.1 06:03:25 11° W 06:07:51 85° S 06:12:31 10° E visible
19 Feb 9.8 03:13:01 15° E 03:13:01 15° E 03:13:59 10° E visible
19 Feb 7.1 04:50:40 50° SW 04:51:46 72° SSE 04:56:23 10° E visible
20 Feb 8.9 03:37:54 27° E 03:37:54 27° E 03:40:14 10° E visible
20 Feb 7.1 05:15:33 30° W 05:17:48 84° S 05:22:27 10° E visible
21 Feb 7.8 04:02:45 51° ESE 04:02:45 51° ESE 04:06:20 10° E visible
21 Feb 7.1 05:40:24 18° W 05:43:53 83° S 05:48:31 10° E visible
22 Feb 10.1 02:49:56 11° E 02:49:56 11° E 02:50:11 10° E visible
22 Feb 6.9 04:27:35 81° SW 04:27:45 84° S 04:32:24 10° E visible
22 Feb 7.2 06:05:19 10° W 06:09:55 69° SSW 06:14:31 10° ESE visible
23 Feb 9.4 03:14:46 20° E 03:14:46 20° E 03:16:17 10° E visible
23 Feb 7.0 04:52:25 45° W 04:53:49 84° S 04:58:28 10° E visible
24 Feb 8.5 03:39:36 36° E 03:39:36 36° E 03:42:21 10° E visible
24 Feb 7.1 05:17:16 25° W 05:19:52 71° SSW 05:24:28 10° ESE visible
25 Feb 7.4 04:04:28 64° ESE 04:04:28 64° ESE 04:08:25 10° E visible
25 Feb 7.5 05:42:07 15° W 05:45:49 50° SSW 05:50:17 10° SE visible
26 Feb 9.9 02:51:42 14° E 02:51:42 14° E 02:52:18 10° E visible
26 Feb 7.0 04:29:21 66° WSW 04:29:49 73° SSW 04:34:26 10° ESE visible
